[[{"header":{"parameterUnit":"m.s-1","parameterCategory":1,"la1":30.2991,"la2":30.254,"lo1":-89.0895,"lo2":-89.0444,"dy":0.0017,"dx":0.0017,"nx":28,"ny":28,"refTime":"2025-06-08T03:00:00:Z","depth":0,"parameterNumber":2,"parameterNumberName":"U-component_of_WINDS"},"data":[0,0,0,0,0,0,0,0,0,0,0,0,0,0,0,0,0,0,0,0,0,0,0,0,0,0,0,0,0,0,0,0,0,0,0,0,0,0,0,0,0,0,0,0,0,0,0,0,0,0,0,0,0,0,0,0,0,0,8.4235,8.4236,0,8.433,8.4331,8.4332,8.4213,8.4208,8.4204,8.42,8.4292,8.4298,8.4304,0,0,0,0,0,0,0,0,0,0,0,0,0,8.3943,8.3949,8.4235,8.4236,8.4237,8.433,8.4331,8.4333,8.4213,8.4208,8.4203,8.4198,8.429,8.4297,8.4305,0,0,0,0,0,0,0,0,0,0,0,0,0,8.4057,8.3951,8.4235,8.4189,8.4186,8.433,8.4331,8.4333,8.4215,8.4208,8.4201,8.4195,8.4287,8.4297,8.4306,8.4498,0,0,8.4336,8.434,0,0,0,0,0,0,0,0,8.4051,8.4068,8.4195,8.4193,8.4189,8.4253,8.4262,8.4388,8.4216,8.4204,8.42,8.4192,8.4284,8.4293,8.4325,8.4502,8.4506,8.4337,8.4343,8.4347,8.435,0,0,0,0,0,0,0,8.4043,8.4063,8.4272,8.4197,8.4193,8.4162,8.4171,8.4285,8.4279,8.4204,8.4196,8.4209,8.4281,8.4316,8.4327,8.4507,8.4337,8.4345,8.4351,8.4355,8.4841,8.4847,0,0,0,0,0,0,8.4041,8.4057,8.4269,8.4275,8.4103,8.4172,8.4182,8.4239,8.4277,8.4277,8.4214,8.4203,8.4303,8.4315,8.4329,8.4552,8.4347,8.4356,8.4362,8.4834,8.4842,8.485,0,0,0,0,0,0,8.4035,8.4061,8.4265,8.4164,8.4188,8.4184,8.4249,8.4244,8.4279,8.4285,8.4283,8.4252,8.4298,8.4316,8.4456,8.4553,8.4361,8.4369,8.4825,8.4836,8.4846,8.5001,0,0,0,0,0,0,8.4027,8.406,8.4134,8.4167,8.4194,8.4393,8.4255,8.4251,8.4297,8.4283,8.432,8.432,8.4294,8.4442,8.4466,8.4563,8.4377,8.4816,8.483,8.4843,8.4987,8.5015,8.504,0,0,0,0,0,8.4017,8.4174,8.4139,8.4165,8.4287,8.4399,8.4414,8.4383,8.4306,8.4379,8.4382,8.4318,8.4541,8.4458,8.4483,8.4585,8.481,8.4826,8.4842,8.4975,8.501,8.5039,0,0,0,0,0,0,8.4151,8.4177,8.4138,8.431,8.4354,8.4378,8.4469,8.4422,8.4486,8.447,8.4428,8.4437,8.4585,8.46,8.4507,8.477,8.4662,8.4684,8.4755,8.4788,8.4814,8.4804,8.4385,0,0,0,0,0,8.4201,8.4292,8.4309,8.4459,8.4483,8.4473,8.4521,8.4494,8.4536,8.4553,8.4566,8.4608,8.4686,8.4739,8.4812,8.499,8.4993,8.5073,8.5099,8.5121,8.5138,8.5229,8.5263,8.4902,8.4902,8.4901,0,0,8.4303,8.4329,8.4389,8.4486,8.4516,8.4608,8.4489,8.4592,8.4659,8.4568,8.47,8.4712,8.4755,8.4915,8.4985,8.4931,8.524,8.5141,8.5159,8.5164,8.5249,8.5283,8.5313,8.4912,8.4911,8.4909,0,0,8.4536,8.4568,8.4694,8.4727,8.4775,8.4767,8.4798,8.4831,8.4835,8.4968,8.49,8.4979,8.5116,8.5148,8.5183,8.5429,8.537,8.5454,8.559,8.5679,8.5707,8.5732,8.5814,8.5845,8.5473,8.5473,8.5473,0,8.4657,8.4795,8.4764,8.4872,8.4915,8.4839,8.4964,8.4997,8.5066,8.5096,8.5035,8.5204,8.5229,8.5392,8.5452,8.5484,8.5514,8.5447,8.5706,8.5731,8.5753,8.5831,8.5863,8.5482,8.5481,8.548,8.5479,0,8.4939,8.5036,8.5132,8.5201,8.5255,8.5372,8.5355,8.5414,8.5382,8.5381,8.5515,8.5542,8.5617,8.5655,8.5625,8.5813,8.5777,8.5713,8.5602,8.5797,8.5869,8.59,8.5496,8.5492,8.549,8.5487,0,0,8.5255,8.5306,8.5341,8.537,8.5418,8.549,8.5602,8.5677,8.5726,8.5777,8.5866,8.5984,8.5924,8.5963,8.5937,8.6016,8.6202,8.594,8.594,8.5983,8.6405,8.6449,8.6484,8.6167,8.6172,8.6177,8.6399,0,8.5484,8.5678,8.5653,8.5838,8.5925,8.5855,8.5951,8.5989,8.5991,8.6063,8.6064,8.6146,8.6063,8.6086,8.6161,8.6164,8.6285,8.6148,8.6244,8.6248,8.6229,8.6523,8.657,8.6779,8.6428,8.6433,8.6436,0,8.5776,8.5838,8.6032,8.6064,8.6099,8.6187,8.6251,8.6323,8.6363,8.6359,8.6403,8.6362,8.6471,8.6363,8.6509,8.6416,8.6454,8.6462,8.6469,8.6471,8.6349,8.6528,8.6845,8.6874,8.6481,8.6478,8.6475,0,8.598,8.6112,8.6244,8.6272,8.6314,8.6376,8.6396,8.6431,8.6477,8.6534,8.6562,8.6631,8.6668,8.6721,8.6698,8.6623,8.6847,8.6738,8.6841,8.6842,8.6887,8.6883,8.7209,8.6923,8.6922,8.6921,8.6921,0,8.6235,8.6355,8.6336,8.6416,8.6547,8.6518,8.6647,8.6659,8.669,8.6769,8.6714,8.6789,8.6758,8.683,8.6814,8.6934,8.6952,8.6948,8.6941,8.695,8.6949,8.6969,8.6952,8.693,8.6928,8.6926,8.6925,0,8.6482,8.6475,8.6613,8.6642,8.6652,8.6747,8.677,8.6844,8.6843,8.6943,8.6965,8.6961,8.7043,8.7028,8.7118,8.7107,8.7256,8.7234,8.7242,8.7234,8.7336,8.7325,8.7681,8.7724,8.7416,8.7419,8.7422,0,8.6642,8.6732,8.6772,8.6821,8.6846,8.6928,8.6974,8.6949,8.6999,8.7052,8.7118,8.7196,8.7255,8.7389,8.7393,8.7461,8.7436,8.7557,8.7445,8.745,8.743,8.7423,8.7429,8.7576,8.758,8.7583,8.7585,0,8.6924,8.6916,8.6987,8.7056,8.7114,8.7167,8.7214,8.7258,8.7236,8.7295,8.7378,8.7425,8.7518,8.7593,8.7656,8.7673,8.7624,8.7621,8.7647,8.7654,8.7652,8.7648,8.7295,8.7612,8.7609,8.7607,8.7606,8.7605,8.7128,8.7204,8.7243,8.7322,8.7356,8.7401,8.7471,8.7479,8.7549,8.7622,8.7603,8.7697,8.7733,8.7813,8.7838,8.7908,8.7863,8.7903,8.7912,8.792,8.7929,8.7647,8.7921,8.792,8.7919,8.7919,8.7918,0,8.7402,8.7424,8.7498,8.7566,8.7628,8.7581,8.7631,8.7684,8.7768,8.7807,8.7868,8.7962,8.8035,8.8046,8.8114,8.8168,8.8147,8.8186,8.8179,8.8182,8.7969,8.7937,8.8202,8.8202,8.8202,8.8202,8.8202,8.8202,8.7552,8.7676,8.7672,8.7811,8.7832,8.7924,8.7956,8.7996,8.8026,8.8135,8.8196,8.8203,8.823,8.8299,8.8363,8.8364,8.8389,8.8436,8.8427,8.8227,8.8198,8.8171,8.8139,8.8443,8.8443,8.8633,8.8635,8.8636]},{"header":{"parameterUnit":"m.s-1","parameterCategory":1,"la1":30.2991,"la2":30.254,"lo1":-89.0895,"lo2":-89.0444,"dy":0.0017,"dx":0.0017,"nx":28,"ny":28,"refTime":"2025-06-08T03:00:00:Z","depth":0,"parameterNumber":3,"parameterNumberName":"V-component_of_WINDS"},"data":[0,0,0,0,0,0,0,0,0,0,0,0,0,0,0,0,0,0,0,0,0,0,0,0,0,0,0,0,0,0,0,0,0,0,0,0,0,0,0,0,0,0,0,0,0,0,0,0,0,0,0,0,0,0,0,0,0,0,6.1705,6.1706,0,6.1775,6.1776,6.1777,6.1658,6.1654,6.165,6.1647,6.1715,6.172,6.1726,0,0,0,0,0,0,0,0,0,0,0,0,0,6.1465,6.147,6.1705,6.1706,6.1707,6.1775,6.1776,6.1777,6.1659,6.1654,6.1649,6.1645,6.1713,6.172,6.1726,0,0,0,0,0,0,0,0,0,0,0,0,0,6.1555,6.1471,6.1705,6.1656,6.1653,6.1775,6.1776,6.1777,6.166,6.1654,6.1648,6.1643,6.1711,6.1719,6.1727,6.1899,0,0,6.1753,6.1756,0,0,0,0,0,0,0,0,6.155,6.1564,6.1663,6.166,6.1656,6.1702,6.1716,6.1818,6.1662,6.1657,6.1647,6.164,6.1715,6.1723,6.1749,6.1902,6.1905,6.1753,6.1758,6.1762,6.1764,0,0,0,0,0,0,0,6.1544,6.1561,6.1733,6.1664,6.166,6.163,6.1636,6.1735,6.1719,6.1657,6.1649,6.1659,6.1712,6.1741,6.175,6.1906,6.1753,6.1761,6.1766,6.1769,6.2202,6.2208,0,0,0,0,0,0,6.1544,6.1556,6.173,6.1735,6.1587,6.1639,6.1646,6.1693,6.1718,6.1716,6.1664,6.1653,6.173,6.174,6.1752,6.1953,6.1762,6.177,6.1775,6.2195,6.2203,6.221,0,0,0,0,0,0,6.154,6.1561,6.1728,6.1643,6.1662,6.1649,6.1704,6.1698,6.1727,6.1723,6.1719,6.1697,6.1726,6.174,6.1863,6.1954,6.1774,6.1781,6.2188,6.2198,6.2207,6.2358,0,0,0,0,0,0,6.1533,6.156,6.1626,6.1646,6.1667,6.184,6.1709,6.1704,6.1742,6.1728,6.1753,6.1751,6.1722,6.1851,6.1872,6.1962,6.1788,6.2179,6.2192,6.2204,6.2345,6.2372,6.2395,0,0,0,0,0,6.1525,6.1666,6.163,6.1652,6.175,6.1845,6.1857,6.1822,6.175,6.1815,6.1813,6.175,6.1941,6.1865,6.1887,6.1981,6.2174,6.2189,6.2203,6.2333,6.2366,6.2394,0,0,0,0,0,0,6.1656,6.1667,6.1628,6.1779,6.1812,6.1825,6.1906,6.1858,6.1911,6.1896,6.185,6.1856,6.1988,6.1997,6.1912,6.2148,6.2045,6.2065,6.2137,6.2168,6.2192,6.2186,6.1795,0,0,0,0,0,6.1703,6.178,6.1785,6.1918,6.1937,6.192,6.196,6.193,6.1962,6.1974,6.1981,6.2013,6.2079,6.2124,6.2186,6.2346,6.2348,6.2421,6.2446,6.2467,6.2484,6.2567,6.2599,6.2258,6.2258,6.2258,0,0,6.1799,6.1815,6.1866,6.1945,6.1967,6.2047,6.1932,6.2021,6.208,6.1988,6.2104,6.211,6.2142,6.2285,6.2347,6.2296,6.2579,6.2485,6.2502,6.2507,6.2585,6.2617,6.2646,6.2268,6.2266,6.2265,0,0,6.2015,6.2036,6.2148,6.2173,6.2208,6.2196,6.2223,6.2243,6.2244,6.2361,6.2293,6.2361,6.2478,6.2503,6.2531,6.2758,6.2702,6.278,6.2909,6.2991,6.3017,6.3041,6.312,6.3149,6.2797,6.2797,6.2798,0,6.213,6.2249,6.2212,6.2306,6.2342,6.2264,6.2376,6.2401,6.2455,6.248,6.2423,6.2567,6.2583,6.2729,6.2785,6.2811,6.2839,6.2775,6.3017,6.304,6.3061,6.3136,6.3166,6.2806,6.2805,6.2804,6.2803,0,6.2388,6.2471,6.2558,6.2612,6.2658,6.2761,6.2737,6.2788,6.2755,6.2748,6.2867,6.2884,6.2947,6.298,6.2948,6.3121,6.3088,6.3025,6.292,6.3104,6.3173,6.3201,6.2819,6.2816,6.2813,6.2811,0,0,6.2686,6.272,6.2751,6.2775,6.2808,6.2871,6.2971,6.3033,6.3077,6.3116,6.3197,6.3298,6.3239,6.3271,6.3242,6.3314,6.349,6.3241,6.3241,6.3285,6.3679,6.3725,6.3759,6.3454,6.3459,6.3463,6.3676,0,6.2899,6.3071,6.304,6.3207,6.3282,6.321,6.3296,6.3325,6.3322,6.3384,6.338,6.3451,6.337,6.3389,6.3457,6.3454,6.3568,6.3439,6.3526,6.3529,6.3518,6.3795,6.3844,6.4044,6.3703,6.3707,6.3711,0,6.3171,6.3222,6.3396,6.3417,6.3448,6.3526,6.358,6.3642,6.3673,6.3665,6.3702,6.3659,6.3755,6.3652,6.3783,6.3696,6.373,6.3734,6.3741,6.3745,6.3629,6.3805,6.4107,6.4136,6.3753,6.375,6.3747,0,6.3368,6.348,6.3599,6.3621,6.3649,6.3706,6.372,6.3745,6.3785,6.3832,6.3857,6.3915,6.3947,6.3992,6.3965,6.3892,6.41,6.3995,6.4094,6.4095,6.4139,6.4137,6.4448,6.4166,6.4166,6.4165,6.4164,0,6.3608,6.3716,6.3687,6.376,6.388,6.3843,6.3962,6.3967,6.3991,6.4062,6.4003,6.407,6.4032,6.4096,6.4076,6.4187,6.4202,6.4197,6.4189,6.4201,6.4201,6.422,6.4205,6.4173,6.4171,6.417,6.4168,0,6.3847,6.3832,6.3956,6.3973,6.398,6.4067,6.4081,6.4148,6.4141,6.4231,6.425,6.4239,6.4311,6.429,6.4368,6.4354,6.4494,6.447,6.4484,6.4477,6.4577,6.4567,6.491,6.4952,6.4645,6.4648,6.4651,0,6.3999,6.4082,6.4108,6.4152,6.4171,6.4243,6.4284,6.4251,6.4295,6.4337,6.4399,6.4467,6.4519,6.4638,6.4635,6.4695,6.467,6.4786,6.4678,6.4687,6.4669,6.4663,6.467,6.4807,6.481,6.4813,6.4816,0,6.4271,6.426,6.4321,6.4381,6.4431,6.4476,6.4515,6.4554,6.4524,6.4576,6.4651,6.4691,6.4772,6.4839,6.4893,6.4905,6.4855,6.485,6.4876,6.4887,6.489,6.4887,6.454,6.4842,6.4839,6.4837,6.4836,6.4835,6.447,6.4539,6.4569,6.4638,6.4665,6.4703,6.4767,6.4768,6.483,6.4894,6.4871,6.4956,6.4984,6.5051,6.5071,6.5136,6.5091,6.5129,6.5138,6.5147,6.5159,6.4883,6.5146,6.5145,6.5144,6.5144,6.5143,0,6.4736,6.4752,6.4817,6.4874,6.4929,6.488,6.4921,6.4969,6.5045,6.5076,6.513,6.5214,6.528,6.5283,6.5343,6.5394,6.5373,6.5411,6.5405,6.5409,6.5197,6.5167,6.5427,6.5427,6.5427,6.5427,6.5427,6.5427,6.4881,6.4995,6.4988,6.5114,6.5128,6.5212,6.5239,6.5273,6.5298,6.5396,6.5451,6.5453,6.5473,6.5534,6.5591,6.559,6.5614,6.5661,6.5651,6.5452,6.5424,6.5397,6.5369,6.5667,6.5667,6.5857,6.5859,6.586]}]]